Regional Weather Roundup
Issued by NWS

Home | Current Version | Previous Version | Graphics & Text | Print | Product List | Glossary On
Versions: 1 2 3 4 5 6 7 8 9 10 11 12 13 14 15 16 17 18 19 20 21 22 23 24 25 26 27 28 29 30 31 32 33 34 35 36 37 38 39 40 41 42 43 44 45 46 47 48 49 50
000
ASUS45 KBOI 021710
RWRID

IDAHO REGIONAL WEATHER ROUNDUP
NATIONAL WEATHER SERVICE BOISE ID
1000 AM MST FRI DEC 02 2016

NOTE: "FAIR" INDICATES FEW OR NO CLOUDS BELOW 12000 FEET
WITH NO SIGNIFICANT WEATHER AND/OR OBSTRUCTIONS TO VISIBILITY

IDZ012-014-021800-
SOUTHWEST IDAHO


CITY           SKY/WX    TMP DP  RH WIND       PRES   REMARKS
BOISE          SUNNY     28  22  78 S6        30.39R WCI  22
CALDWELL       SUNNY     33  30  88 N3        30.42R
MOUNTAIN HOME  CLOUDY    25  25 100 SE6       30.39R FOG     WCI  18
$$

IDZ016-017-021800-
SOUTHCENTRAL IDAHO


CITY           SKY/WX    TMP DP  RH WIND       PRES   REMARKS
BURLEY         CLOUDY    26  22  84 W6        30.32R WCI  19
JEROME         CLOUDY    24  23  96 SW10      30.34R WCI  14
TWIN FALLS     SUNNY     28  21  75 SW12      30.33R WCI  18
$$

IDZ019>023-021800-
SOUTHEAST IDAHO


CITY           SKY/WX    TMP DP  RH WIND       PRES   REMARKS
IDAHO FALLS    FOG       17  14  88 N5        30.30R VSB 1/4 WCI  10
POCATELLO      CLOUDY    22  19  89 SW5       30.32R WCI  16
REXBURG        CLOUDY    19  16  88 CALM      30.27S
$$

IDZ006-010-011-018-031-032-021800-
CENTRAL IDAHO MOUNTAINS


CITY           SKY/WX    TMP DP  RH WIND       PRES   REMARKS
MCCALL         SUNNY     11   9  92 CALM      30.28R
HAILEY         SUNNY     19  10  68 N9        30.28R WCI   9
STANLEY          N/A      9   3  77 CALM      30.27R
SALMON         CLOUDY    28  25  86 CALM      30.31R
CHALLIS        SUNNY     22  20  92 SE5       30.28R WCI  16
$$

IDZ002-004-006-007-026-021800-
NORTHERN IDAHO


CITY           SKY/WX    TMP DP  RH WIND       PRES   REMARKS
LEWISTON       MOSUNNY   30  26  85 N5        30.38F WCI  25
LOWELL           N/A     36  32  85 CALM      30.42R
COEUR D`ALENE  CLOUDY    31  30  96 CALM      30.32F
MULLAN PASS    CLOUDY    20  17  88 VRB5      30.17F WCI  13
$$



USA.gov is the U.S. government's official web portal to all federal, state and local government web resources and services.